OpenBCM V1.08-5-g2f4a (Linux)

Packet Radio Mailbox

IZ3LSV

[San Dona' di P. JN]

 Login: GUEST





  
I0OJJ  > KEPS     07.12.25 12:01l 317 Lines 15151 Bytes #172 (0) @ AMSAT
BID : ORB25340.1
Read: GUEST
Subj: 2Line Orbital Elements 25340.AMSAT
Path: IZ3LSV<ED1ZAC<GB7CIP<GB7JED<GB7CQV<GB7RJJ<PI8ZTM<CX2SA<EA2RCF<I0OJJ
Sent: 251206/0021z @:I0OJJ.ITA.EU [Rome] obcm1.08-11-2-gbfe9
From: I0OJJ @ I0OJJ.ITA.EU (Gustavo)
To:   KEPS @ AMSAT
X-Info: This message was generated automatically


QST de W1STR

AMSAT Orbital Elements for Amateur Satellites in TLE Format
From Orbital Analysis Office
New England Sci-Tech STEM Education Center
Natick MA December 06, 2025
To all radio amateurs


These element sets describe the orbits of various satellites 
in use by the amateur radio community. For details see:
www.amsat.org/keplerian-elements-formats/

A daily update of element sets is available at:
www.amsat.org/tle/daily-bulletin.txt
or without bulletin text:
www.amsat.org/tle/dailytle.txt


AO-07
1 07530U 74089B   25339.30462582 -.00000034  00000-0  76708-4 0  9995
2 07530 101.9967 345.4942 0012333 140.6370 238.7539 12.53694002336229
UO-11
1 14781U 84021B   25339.13827900  .00003298  00000-0  34657-3 0  9998
2 14781  97.7800 302.2854 0009241 102.7337 257.4915 14.90101913228225
AO-27
1 22825U 93061C   25339.16679904  .00000310  00000-0  13543-3 0  9995
2 22825  98.7157  41.4158 0007571 314.6952  45.3613 14.30872575679254
FO-29
1 24278U 96046B   25339.15752168  .00000041  00000-0  80275-4 0  9996
2 24278  98.5467 209.3102 0348958 239.6893 116.9299 13.53262158446926
GO-32
1 25397U 98043D   25338.55827969  .00000181  00000-0  98436-4 0  9996
2 25397  98.9913 321.5819 0002213  70.8607 289.2810 14.24373417423625
ISS
1 25544U 98067A   25339.25291940  .00014736  00000-0  27197-3 0  9994
2 25544  51.6297 179.5463 0003586 206.2517 153.8291 15.49328184541691
NO-44
1 26931U 01043C   25339.19234971  .00000407  00000-0  18300-3 0  9993
2 26931  67.0519  25.9969 0007392 270.3058  89.7197 14.31848409262673
SO-50
1 27607U 02058C   25339.31704848  .00003772  00000-0  46760-3 0  9999
2 27607  64.5546   8.5402 0071858 297.9732  61.4114 14.82341013235713
CO-55
1 27844U 03031E   25339.28339802  .00000690  00000-0  31852-3 0  9996
2 27844  98.6764 345.2827 0010165  34.1370 326.0461 14.24169353164077
CO-57
1 27848U 03031J   25338.96513319  .00000599  00000-0  28264-3 0  9992
2 27848  98.6794 344.8368 0010349  51.8384 308.3725 14.23478649163743
RS-22
1 27939U 03042A   25339.31698125  .00002829  00000-0  44897-3 0  9992
2 27939  98.3361 153.3201 0011702 158.1949 323.4655 14.72937139187005
CO-58
1 28895U 05043F   25338.96371200  .00004102  00000-0  66264-3 0  9997
2 28895  98.2720 125.9104 0015400 101.2291 259.0647 14.71850816 73172
CO-65
1 32785U 08021C   25339.26838033  .00011795  00000-0  79273-3 0  9995
2 32785  97.8079 312.2513 0008747 339.4415  20.6458 15.06901213955966
CO-66
1 32791U 08021J   25338.50500130  .00038205  00000-0  15356-2 0  9998
2 32791  97.7432 323.3701 0001082 302.4577  57.6555 15.24823517957545
RS-30
1 32953U 08025A   25339.30656127  .00000016  00000-0  42793-4 0  9995
2 32953  82.5011 116.0458 0019207  17.2227 342.9501 12.43171778795608
SRMSAT
1 37841U 11058D   25338.68132391  .00000548  00000-0  15376-3 0  9994
2 37841  19.9698 156.7245 0011717 224.0627 213.4569 14.11507205730306
ZACUBE-1
1 39417U 13066B   25339.31571958  .00009546  00000-0  77877-3 0  9994
2 39417  97.8069 295.8489 0041625 170.7007 189.4996 14.98975292651666
Delfi-N3xt
1 39428U 13066N   25339.29568636  .00013278  00000-0  12455-2 0  9999
2 39428  97.8341 255.2417 0080494 129.6513 231.1844 14.91650331645683
GOMX-1
1 39430U 13066Q   25339.27063742  .00004724  00000-0  72349-3 0  9993
2 39430  97.6594 186.8631 0130254 340.6569  18.9717 14.68527876641448
LO-74
1 39440U 13066AA  25339.29446656  .00009893  00000-0  95277-3 0  9992
2 39440  97.8700 282.9759 0058776 311.0827  48.5322 14.91844218648060
AO-73
1 39444U 13066AE  25338.88045086  .00015775  00000-0  10727-2 0  9994
2 39444  97.8051 302.0647 0040226 141.2064 219.2063 15.05756475650380
DTUSAT-2
1 40030U 14033W   25338.19668339  .00016835  00000-0  99568-3 0  9997
2 40030  98.0743 319.1841 0008457 166.1734 193.9728 15.11510902623194
EO-80
1 40032U 14033Y   25338.93594447  .00016280  00000-0  96018-3 0  9990
2 40032  98.0630 319.3686 0009748 110.5268 249.7008 15.11608805623280
LILACSAT-2
1 40908U 15049K   25339.35063317  .00023842  00000-0  51689-3 0  9991
2 40908  97.4913   4.5071 0006547 227.8530 132.2162 15.44394286565764
IO-86
1 40931U 15052B   25151.18580175  .00001241  00000-0  78118-4 0  9996
2 40931   6.0006  24.0987 0012733 338.8432  21.1169 14.78805930523159
Horyu-4
1 41340U 16012D   25339.21419515  .00066158  00000-0  11440-2 0  9990
2 41340  30.9957   1.6121 0006574 160.5838 199.5062 15.49617726540381
Lapan A3
1 41603U 16040E   25339.31165926  .00007124  00000-0  23654-3 0  9997
2 41603  97.1420 337.1388 0010587   1.4800 358.6472 15.31461931525120
CAS-2T
1 41847U 16066G   25339.20965512  .00001850  00000-0  26968-3 0  9993
2 41847  98.4046  52.0231 0343837 357.9891   1.9896 14.44104107476792
TechnoSat
1 42829U 17042E   25339.00757536  .00008798  00000-0  65001-3 0  9991
2 42829  97.4018 139.5475 0018769  38.3488 321.9069 15.03309869457511
AO-91
1 43017U 17073E   25339.15028341  .00019472  00000-0  92383-3 0  9990
2 43017  97.4952 205.5190 0159963 276.7690  81.5360 15.08613577436093
S-Net D
1 43186U 18014G   25339.28700916  .00012089  00000-0  66457-3 0  9992
2 43186  97.5490 240.4353 0008178 341.2547  18.8382 15.14207326429397
S-Net B
1 43187U 18014H   25339.29494686  .00011430  00000-0  62899-3 0  9993
2 43187  97.5495 240.4230 0008694 335.7508  24.3313 15.14182762429397
S-Net A
1 43188U 18014J   25339.28674864  .00012197  00000-0  67032-3 0  9996
2 43188  97.5502 240.5899 0008617 336.4572  23.6264 15.14213926429397
S-Net C
1 43189U 18014K   25339.29788801  .00011407  00000-0  62765-3 0  9996
2 43189  97.5519 240.6452 0009779 327.3142  32.7483 15.14178388427949
Ten-Koh
1 43677U 18084G   25339.24921839  .00006386  00000-0  49506-3 0  9998
2 43677  98.0727 158.5660 0009391  44.1617 316.0355 15.01740865387040
PO-101
1 43678U 18084H   25339.31130678  .00004787  00000-0  39624-3 0  9993
2 43678  98.1018 162.4758 0007460  64.2239 295.9752 14.99375409387157
QO-100
1 43700U 18090A   25338.57704175  .00000159  00000-0  00000+0 0  9993
2 43700   0.0177  13.7086 0001547 252.5823  40.8941  1.00272932 25728
MinXSS-2
1 43758U 18099A   25339.18959029  .00044213  00000-0  13407-2 0  9990
2 43758  97.4816  46.4551 0008832 240.7543 119.2817 15.33953514384266
AO-95
1 43770U 18099N   25339.09945700  .00024080  00000-0  10663-2 0  9996
2 43770  97.4692  35.4404 0008615 316.4623  43.5932 15.21608359383656
SNUSat 2
1 43782U 18099AA  25339.14491172  .00018559  00000-0  91181-3 0  9993
2 43782  97.4367  30.6828 0009659 251.9534 108.0648 15.18063346383555
SnugLite
1 43784U 18099AC  25339.08855405  .00024698  00000-0  10822-2 0  9994
2 43784  97.4182  30.6475 0001819 238.6373 121.4686 15.21994956383749
ITASat 1
1 43786U 18099AE  25339.10726867  .00015845  00000-0  82829-3 0  9999
2 43786  97.4335  29.5790 0012308 312.9417  47.0782 15.15891593383474
EAGLET 1
1 43790U 18099AJ  25339.08944038  .00011110  00000-0  66772-3 0  9993
2 43790  97.4533  28.8240 0010212 299.7117  60.3097 15.10997809383000
ESEO
1 43792U 18099AL  25339.09439564  .00003636  00000-0  27114-3 0  9990
2 43792  97.4243  19.5927 0010340 277.1199  82.8851 15.03434691382633
JO-97
1 43803U 18099AX  25339.14690535  .00030791  00000-0  11791-2 0  9991
2 43803  97.4428  36.9893 0005437 232.7419 127.3324 15.26477619383957
Suomi 100
1 43804U 18099AY  25339.10062019  .00026427  00000-0  11221-2 0  9997
2 43804  97.4497  35.6223 0009827 241.4606 118.5642 15.23009257383826
ISAT
1 43879U 18111D   25339.27142756  .00059652  00000-0  14381-2 0  9995
2 43879  97.5910 258.6753 0004020 303.8761  56.2102 15.41021971381092
UWE-4
1 43880U 18111E   25339.26287658  .00041567  00000-0  12646-2 0  9995
2 43880  97.5859 255.5826 0008241 312.2146  47.8396 15.33869206380938
Sparrow
1 43881U 18111F   25339.26678862  .00068542  00000-0  15347-2 0  9990
2 43881  97.6095 262.3797 0004688   0.3175 359.8074 15.43202452381219
Prox-1
1 44339U 19036A   25339.24935142  .00021842  00000-0  24718-2 0  9995
2 44339  23.9976 324.3671 0006147 313.2275  46.7710 14.84893451344551
Taurus 1
1 44530U 19059C   25339.34716149  .00016534  00000-0  28242-2 0  9996
2 44530  98.6225 127.7942 0009112 196.8809 163.2093 14.68960625330159
Duchifat 3
1 44854U 19089C   25337.20011490  .01105376  61298-3  19590-2 0  9997
2 44854  36.9264 289.0060 0011659 216.1192 143.8795 16.00863037330610
TO-108
1 44881U 19093C   25339.29400887  .00002471  00000-0  28791-3 0  9991
2 44881  97.7770  51.0921 0013842  10.8229 349.3282 14.86077142322617
FloripaSat 1
1 44885U 19093G   25339.24511264  .00014048  00000-0  10992-2 0  9998
2 44885  97.8060  67.4034 0011162   1.2004 358.9245 15.01112343323525
RS-44
1 44909U 19096E   25339.27412444  .00000024  00000-0  56456-4 0  9997
2 44909  82.5199 108.5693 0216839 237.6146 120.3809 12.79745798277549
SALSAT
1 46495U 20068K   25338.86078935  .00016650  00000-0  64688-3 0  9994
2 46495  97.8773 325.7095 0008632 262.7376  97.2880 15.26115601285685
CSS (TIANHE-1)
1 48274U 21035A   25339.28337955  .00034071  00000-0  43162-3 0  9994
2 48274  41.4682  61.9587 0009834 333.0075  27.0251 15.58716050262862
TUBIN
1 48900U 21059X   25339.32509059  .00748412  28081-3  11321-2 0  9991
2 48900  97.6683 166.6177 0003651 279.1457  80.9409 16.04626843248134
CUTE
1 49263U 21088D   25339.26179043  .00042401  00000-0  56562-3 0  9995
2 49263  97.4364  61.7797 0004488 304.6347  55.4485 15.57980570232136
TeikyoSat 4
1 49396U 21102B   25339.04072567  .00005491  00000-0  35465-3 0  9995
2 49396  97.3904  10.9297 0010922 237.5140 122.5033 15.08588984223446
Z-Sat
1 49399U 21102E   25339.25446122  .00009370  00000-0  48485-3 0  9999
2 49399  97.3588  15.4235 0016689 198.6735 161.3888 15.16324599224036
